Japanese version Home page |
Updated on March 5, 2020 |
|
Orbital ElementsEpoch 2017 Sept. 4.0 TT = JDT 2458000.5 T 2017 Sept. 6.98130 TT MPCW q 2.6494792 (2000.0) P Q z +0.0070470 Peri. 194.67847 -0.26321178 -0.88443700 +/-0.0000021 Node 271.74836 +0.91943902 -0.10901426 e 0.9813292 Incl. 22.67630 +0.29214968 -0.45374781 From 411 observations 2016 Oct. 10-2018 Apr. 18, mean residual 0".6.
|
Finding Charts
|
Magnitudes Graphm1 = 10.2 + 5 log d + 10.0 log r(t + 50)
|
The orbital elements are published on M.P.E.C. 2018-H105.
|